Location: Bear Valley Community Church - Hurst
(32.8460°N, 97.1828°W)
Time: 08:16:18
(UTC+00:00)

Cosmos 1515 Rocket - Pass Details

Date: 09 July 2022
Orbit: 604 x 631 km, 82.5° (Epoch: 09 August)

Event Time Altitude Azimuth Distance (km) Brightness Sun altitude
Rises 08:37:14 0° 354° (N) 2,880 7.7 -27.5°
Reaches altitude 10° 08:39:28 10° 354° (N) 1,968 6.8 -27.2°
Enters shadow 08:42:51 54° 358° (N) 742 4.1 -26.8°
